When you browse on this site, cookies collect data to enhance your experience and personalize the content and advertising you see.
Visit our Privacy Policy to learn more. By continuing to use the site, you agree to this use of cookies and data.
  • In Deutschland
  • Länderverzeichnis
  • Für 7 Tage
  • Wassertemperatur
  • Wetterkarte
  • Widgets
  • user-avatar
    Anmelden

    Stündliche Wetter La Rioja

    Heute, 12 Dezember, Donnerstag

    Zeit Temperatur Niederschläge Wind Luftdruck Luftfeuchtigkeit
    00:00 +34°C° 0 mm 3 m/S 709 mmHg 33%
    01:00 +33°C° 0 mm 5 m/S 709 mmHg 35%
    02:00 +33°C° 0 mm 7 m/S 710 mmHg 38%
    03:00 +30°C° 0 mm 6 m/S 710 mmHg 42%
    04:00 +29°C° 0 mm 5 m/S 711 mmHg 46%
    05:00 +28°C° 0 mm 4 m/S 712 mmHg 50%
    06:00 +28°C° 0 mm 4 m/S 713 mmHg 47%
    07:00 +28°C° 0 mm 4 m/S 715 mmHg 43%
    08:00 +28°C° 0 mm 5 m/S 716 mmHg 40%
    09:00 +29°C° 0 mm 4 m/S 716 mmHg 36%
    10:00 +29°C° 0 mm 4 m/S 716 mmHg 33%
    11:00 +30°C° 0 mm 4 m/S 716 mmHg 29%
    12:00 +32°C° 0 mm 4 m/S 715 mmHg 28%
    13:00 +32°C° 0 mm 4 m/S 714 mmHg 27%
    14:00 +32°C° 0 mm 4 m/S 714 mmHg 27%
    15:00 +32°C° 0 mm 5 m/S 713 mmHg 26%
    16:00 +32°C° 0 mm 5 m/S 712 mmHg 26%
    17:00 +32°C° 0 mm 5 m/S 712 mmHg 25%
    18:00 +30°C° 0 mm 5 m/S 712 mmHg 25%
    19:00 +29°C° 0 mm 4 m/S 713 mmHg 24%
    20:00 +28°C° 0 mm 4 m/S 714 mmHg 23%
    21:00 +27°C° 0 mm 3 m/S 714 mmHg 23%
    22:00 +26°C° 0 mm 3 m/S 714 mmHg 24%
    23:00 +26°C° 0 mm 2 m/S 715 mmHg 25%

    Morgen, 13 Dezember, Freitag

    Zeit Temperatur Niederschläge Wind Luftdruck Luftfeuchtigkeit
    00:00 +25°C° 0 mm 2 m/S 714 mmHg 26%
    01:00 +24°C° 0 mm 2 m/S 714 mmHg 27%
    02:00 +24°C° 0 mm 1 m/S 713 mmHg 28%
    03:00 +24°C° 0 mm 1 m/S 713 mmHg 29%
    04:00 +23°C° 0 mm 1 m/S 713 mmHg 30%
    05:00 +23°C° 0 mm 1 m/S 712 mmHg 31%
    06:00 +24°C° 0 mm 1 m/S 712 mmHg 30%
    07:00 +25°C° 0 mm 1 m/S 713 mmHg 29%
    08:00 +26°C° 0 mm 1 m/S 713 mmHg 28%
    09:00 +28°C° 0 mm 2 m/S 713 mmHg 27%
    10:00 +29°C° 0 mm 2 m/S 712 mmHg 26%
    11:00 +30°C° 0 mm 2 m/S 712 mmHg 25%
    12:00 +31°C° 0 mm 2 m/S 711 mmHg 25%
    13:00 +34°C° 0 mm 2 m/S 710 mmHg 24%
    14:00 +35°C° 0 mm 3 m/S 709 mmHg 24%
    15:00 +36°C° 0 mm 3 m/S 709 mmHg 25%
    16:00 +36°C° 0 mm 4 m/S 708 mmHg 26%
    17:00 +37°C° 0 mm 4 m/S 708 mmHg 27%
    18:00 +35°C° 0 mm 4 m/S 708 mmHg 31%
    19:00 +34°C° 0 mm 4 m/S 709 mmHg 34%
    20:00 +33°C° 0 mm 4 m/S 709 mmHg 37%
    21:00 +31°C° 0 mm 3 m/S 710 mmHg 40%
    22:00 +30°C° 0 mm 3 m/S 710 mmHg 43%
    23:00 +29°C° 0 mm 2 m/S 711 mmHg 45%

    übermorgen, 14 Dezember, Samstag

    Zeit Temperatur Niederschläge Wind Luftdruck Luftfeuchtigkeit
    00:00 +28°C° 0 mm 2 m/S 711 mmHg 47%
    01:00 +27°C° 0 mm 2 m/S 710 mmHg 48%
    02:00 +26°C° 0 mm 2 m/S 710 mmHg 50%
    03:00 +26°C° 0 mm 2 m/S 710 mmHg 51%
    04:00 +25°C° 0 mm 3 m/S 710 mmHg 52%
    05:00 +25°C° 0 mm 3 m/S 710 mmHg 53%
    06:00 +26°C° 0 mm 3 m/S 710 mmHg 50%
    07:00 +27°C° 0 mm 3 m/S 711 mmHg 47%
    08:00 +28°C° 0 mm 3 m/S 711 mmHg 43%
    09:00 +30°C° 0 mm 4 m/S 711 mmHg 41%
    10:00 +32°C° 0 mm 4 m/S 711 mmHg 38%
    11:00 +34°C° 0 mm 5 m/S 711 mmHg 35%
    12:00 +35°C° 0 mm 5 m/S 710 mmHg 33%
    13:00 +36°C° 0 mm 5 m/S 709 mmHg 32%
    14:00 +36°C° 0 mm 5 m/S 708 mmHg 31%
    15:00 +36°C° 0 mm 4 m/S 708 mmHg 31%
    16:00 +37°C° 0 mm 3 m/S 707 mmHg 30%
    17:00 +37°C° 0 mm 3 m/S 707 mmHg 30%
    18:00 +36°C° 0 mm 3 m/S 708 mmHg 32%
    19:00 +35°C° 0 mm 2 m/S 708 mmHg 34%
    20:00 +34°C° 0 mm 2 m/S 709 mmHg 35%
    21:00 +32°C° 0.1 mm 2 m/S 709 mmHg 39%
    22:00 +31°C° 0.1 mm 3 m/S 710 mmHg 43%
    23:00 +31°C° 0.1 mm 3 m/S 710 mmHg 46%

    15 Dezember, Sonntag

    Zeit Temperatur Niederschläge Wind Luftdruck Luftfeuchtigkeit
    00:00 +29°C° 0.3 mm 3 m/S 711 mmHg 53%
    01:00 +28°C° 0.3 mm 3 m/S 711 mmHg 61%
    02:00 +26°C° 0.3 mm 4 m/S 711 mmHg 68%
    03:00 +26°C° 0.5 mm 4 m/S 712 mmHg 67%
    04:00 +26°C° 0.5 mm 4 m/S 712 mmHg 67%
    05:00 +26°C° 0.5 mm 3 m/S 713 mmHg 66%
    06:00 +27°C° 0 mm 5 m/S 714 mmHg 56%
    07:00 +27°C° 0 mm 6 m/S 715 mmHg 46%
    08:00 +28°C° 0 mm 8 m/S 715 mmHg 35%
    09:00 +29°C° 0 mm 7 m/S 715 mmHg 32%
    10:00 +32°C° 0 mm 7 m/S 715 mmHg 30%
    11:00 +33°C° 0 mm 6 m/S 715 mmHg 27%
    12:00 +33°C° 0 mm 5 m/S 715 mmHg 25%
    13:00 +34°C° 0 mm 4 m/S 714 mmHg 24%
    14:00 +35°C° 0 mm 3 m/S 713 mmHg 23%
    15:00 +35°C° 0 mm 3 m/S 712 mmHg 22%
    16:00 +35°C° 0 mm 3 m/S 712 mmHg 22%
    17:00 +35°C° 0 mm 3 m/S 711 mmHg 21%
    18:00 +34°C° 0 mm 2 m/S 711 mmHg 23%
    19:00 +32°C° 0 mm 2 m/S 712 mmHg 24%
    20:00 +31°C° 0 mm 2 m/S 712 mmHg 26%
    21:00 +30°C° 0 mm 2 m/S 712 mmHg 29%
    22:00 +30°C° 0 mm 2 m/S 712 mmHg 32%
    23:00 +29°C° 0 mm 2 m/S 712 mmHg 35%

    16 Dezember, Montag

    Zeit Temperatur Niederschläge Wind Luftdruck Luftfeuchtigkeit
    00:00 +28°C° 0 mm 2 m/S 712 mmHg 36%
    01:00 +28°C° 0 mm 1 m/S 712 mmHg 37%
    02:00 +28°C° 0 mm 1 m/S 711 mmHg 38%
    03:00 +27°C° 0 mm 1 m/S 711 mmHg 41%
    04:00 +26°C° 0 mm 1 m/S 710 mmHg 44%
    05:00 +25°C° 0 mm 1 m/S 710 mmHg 46%
    06:00 +27°C° 0 mm 1 m/S 710 mmHg 43%
    07:00 +28°C° 0 mm 2 m/S 711 mmHg 39%
    08:00 +30°C° 0 mm 2 m/S 711 mmHg 36%
    09:00 +31°C° 0 mm 2 m/S 711 mmHg 32%
    10:00 +34°C° 0 mm 3 m/S 710 mmHg 29%
    11:00 +35°C° 0 mm 3 m/S 710 mmHg 25%
    12:00 +36°C° 0 mm 5 m/S 709 mmHg 25%
    13:00 +38°C° 0 mm 6 m/S 709 mmHg 24%
    14:00 +39°C° 0 mm 7 m/S 708 mmHg 24%
    15:00 +39°C° 0 mm 7 m/S 707 mmHg 24%
    16:00 +38°C° 0 mm 6 m/S 707 mmHg 24%
    17:00 +38°C° 0 mm 6 m/S 706 mmHg 24%
    18:00 +36°C° 0 mm 6 m/S 707 mmHg 28%
    19:00 +34°C° 0 mm 6 m/S 708 mmHg 31%
    20:00 +33°C° 0 mm 5 m/S 708 mmHg 35%
    21:00 +32°C° 0 mm 4 m/S 709 mmHg 38%
    22:00 +30°C° 0 mm 3 m/S 709 mmHg 40%
    23:00 +29°C° 0 mm 2 m/S 710 mmHg 43%

    17 Dezember, Dienstag

    Zeit Temperatur Niederschläge Wind Luftdruck Luftfeuchtigkeit
    00:00 +28°C° 0 mm 2 m/S 710 mmHg 44%
    01:00 +28°C° 0 mm 2 m/S 709 mmHg 45%
    02:00 +27°C° 0 mm 2 m/S 709 mmHg 47%
    03:00 +27°C° 0 mm 1 m/S 709 mmHg 48%
    04:00 +26°C° 0 mm 1 m/S 709 mmHg 50%
    05:00 +25°C° 0 mm 1 m/S 709 mmHg 52%
    06:00 +26°C° 0 mm 1 m/S 709 mmHg 48%
    07:00 +28°C° 0 mm 2 m/S 710 mmHg 44%
    08:00 +29°C° 0 mm 2 m/S 710 mmHg 40%
    09:00 +30°C° 0 mm 3 m/S 710 mmHg 37%
    10:00 +33°C° 0 mm 3 m/S 709 mmHg 34%
    11:00 +34°C° 0 mm 3 m/S 709 mmHg 31%
    12:00 +35°C° 0 mm 4 m/S 708 mmHg 29%
    13:00 +37°C° 0 mm 4 m/S 708 mmHg 27%
    14:00 +38°C° 0 mm 4 m/S 707 mmHg 25%
    15:00 +39°C° 0 mm 5 m/S 706 mmHg 25%
    16:00 +39°C° 0 mm 5 m/S 706 mmHg 25%
    17:00 +40°C° 0 mm 6 m/S 705 mmHg 26%
    18:00 +38°C° 0 mm 6 m/S 706 mmHg 30%
    19:00 +35°C° 0 mm 5 m/S 706 mmHg 35%
    20:00 +34°C° 0 mm 5 m/S 706 mmHg 39%
    21:00 +33°C° 0 mm 5 m/S 707 mmHg 41%
    22:00 +32°C° 0 mm 4 m/S 708 mmHg 43%
    23:00 +32°C° 0 mm 4 m/S 708 mmHg 45%
    Mehr zeigen